Starlink 3930

operational
NORAD ID: 52568 Int'l Des: 2022-051 Owner: SPXS Country: US Constellation: starlink
LEOCIRCULAR

About Starlink 3930

Description loading...

Live Position

Loading 3D Globe...

Upcoming Passes

Altitude History

Altitude vs Time

uPlot chart will show altitude changes over time

Two-Line Element Set

1 52568U 22051AM 26036.76488936 .00000183 00000-0 29612-4 0 9990
2 52568 53.2172 262.4377 0001521 89.1903 270.9263 15.08850979206760
Epoch: Feb 5, 2026 • Age: 15 hours

Current Status

Altitude 558.5 km
Velocity 7.58 km/s
Sub-Earth Point -51.30°S, 135.81°W
Launch Date May 13, 2022
Age 3.7 years
Type internet

Technical Details

Classification Payload
Mass 297.00 kg
Dry Mass 275.00 kg
Total Mass 297.00 kg
Length 0.20 m
Diameter 2.80 m
Span 9.00 m
Shape Box + pan
Manufacturer SPXS
Bus Type Starlink
Phase Status In Orbit
Owner/State SPXS/US

Large Constellations

Loading constellations...